2023/02/10 23:32:04+0000,-35.26,-43.43,-32.87,-47.42,-48.40,-51.11
2023/02/10 23:32:56+0000,-35.30,-44.76,-32.84,-46.85,-50.07,-52.21
2023/02/10 23:33:48+0000,-36.02,-44.66,-32.97,-47.40,-48.43,-55.44
2023/02/10 23:34:40+0000,-35.98,-44.49,-32.05,-47.00,-49.23,-51.02
2023/02/10 23:35:32+0000,-35.88,-43.89,-32.22,-47.00,-48.78,-55.99
2023/02/10 23:36:24+0000,-36.48,-43.97,-32.54,-47.49,-48.29,-49.01
2023/02/10 23:37:16+0000,-36.05,-44.46,-32.41,-46.66,-48.65,-51.94
2023/02/10 23:38:08+0000,-35.53,-47.35,-32.00,-46.64,-48.96,-50.60
2023/02/10 23:39:00+0000,-35.26,-45.59,-32.62,-47.51,-48.29,-52.65
2023/02/10 23:39:52+0000,-35.40,-44.76,-32.57,-47.72,-48.27,-53.50
2023/02/10 23:40:44+0000,-35.83,-45.15,-32.79,-47.14,-48.83,-50.50
2023/02/10 23:41:44+0000,-35.52,-45.74,-32.92,-47.26,-48.50,-53.12
2023/02/10 23:42:36+0000,-35.64,-45.94,-32.47,-47.75,-47.66,-51.46
2023/02/10 23:43:28+0000,-35.22,-44.16,-32.84,-47.22,-47.77,-53.44
2023/02/10 23:44:20+0000,-35.44,-45.05,-32.58,-47.96,-48.70,-53.08
2023/02/10 23:45:12+0000,-35.80,-43.63,-32.76,-46.26,-50.01,-51.90
2023/02/10 23:46:04+0000,-35.73,-44.73,-32.77,-46.96,-48.70,-50.94
2023/02/10 23:46:56+0000,-35.73,-44.72,-32.31,-43.83,-49.62,-51.71
2023/02/10 23:47:48+0000,-36.48,-46.28,-32.49,-40.63,-47.15,-55.57
2023/02/10 23:48:40+0000,-35.16,-43.93,-32.69,-40.61,-47.59,-49.99
2023/02/10 23:49:32+0000,-35.11,-43.86,-32.49,-41.93,-48.01,-54.91
2023/02/10 23:50:24+0000,-35.92,-43.66,-32.42,-41.33,-47.58,-50.42
2023/02/10 23:51:24+0000,-36.52,-44.35,-32.03,-41.46,-48.95,-50.45
2023/02/10 23:52:16+0000,-35.91,-43.18,-32.15,-41.14,-47.67,-48.15
2023/02/10 23:53:08+0000,-36.71,-43.63,-32.44,-40.44,-46.84,-50.76
2023/02/10 23:54:00+0000,-36.01,-43.92,-32.67,-42.46,-45.62,-52.04
2023/02/10 23:54:52+0000,-35.70,-43.09,-32.29,-43.84,-48.24,-51.50
2023/02/10 23:55:44+0000,-36.97,-43.11,-32.88,-43.46,-47.28,-47.92
2023/02/10 23:56:36+0000,-36.50,-43.67,-32.43,-44.11,-49.14,-48.80
2023/02/10 23:57:28+0000,-36.10,-43.82,-31.95,-43.18,-47.15,-51.60
2023/02/10 23:58:20+0000,-36.24,-46.04,-32.45,-44.19,-47.35,-51.69
2023/02/10 23:59:12+0000,-36.89,-45.37,-31.93,-43.46,-48.36,-49.77
2023/02/11 00:00:04+0000,-36.28,-44.07,-32.35,-44.21,-47.95,-46.48
2023/02/11 00:01:08+0000,-36.58,-43.91,-32.27,-42.48,-47.61,-48.21
2023/02/11 00:02:00+0000,-36.10,-43.51,-32.50,-41.60,-47.58,-55.31
2023/02/11 00:02:52+0000,-36.63,-43.26,-32.38,-42.19,-47.72,-50.32
2023/02/11 00:03:44+0000,-37.16,-45.62,-32.54,-44.30,-46.68,-49.70
2023/02/11 00:04:36+0000,-36.25,-45.78,-32.36,-43.55,-46.76,-48.81
2023/02/11 00:05:28+0000,-36.95,-45.10,-32.47,-42.75,-46.72,-49.36
2023/02/11 00:06:20+0000,-36.72,-45.45,-32.35,-41.17,-47.05,-48.62
2023/02/11 00:07:12+0000,-37.17,-45.96,-32.86,-42.50,-47.49,-53.37
2023/02/11 00:08:04+0000,-36.97,-46.57,-32.71,-42.12,-47.17,-50.49
2023/02/11 00:08:56+0000,-36.66,-46.37,-32.63,-48.14,-47.94,-50.98
2023/02/11 00:09:48+0000,-36.06,-45.98,-32.35,-45.64,-47.43,-49.40
2023/02/11 00:10:40+0000,-35.45,-46.76,-32.51,-44.53,-49.22,-50.79
2023/02/11 00:11:40+0000,-35.19,-44.75,-31.84,-43.28,-48.11,-49.72
2023/02/11 00:12:32+0000,-35.51,-46.12,-32.96,-43.61,-48.23,-52.44
2023/02/11 00:13:24+0000,-35.20,-46.84,-33.03,-43.45,-48.45,-51.11
2023/02/11 00:14:16+0000,-35.74,-45.71,-33.01,-43.44,-48.43,-53.73
2023/02/11 00:15:08+0000,-35.64,-45.98,-32.66,-45.11,-47.86,-49.45
2023/02/11 00:16:00+0000,-34.72,-45.72,-32.24,-44.45,-47.89,-51.79
2023/02/11 00:16:52+0000,-35.05,-46.84,-32.80,-44.48,-48.11,-50.38
2023/02/11 00:17:44+0000,-35.58,-44.71,-32.45,-45.07,-48.33,-50.02
2023/02/11 00:18:36+0000,-35.15,-47.15,-32.40,-43.37,-48.27,-48.38
2023/02/11 00:19:28+0000,-35.26,-46.25,-32.89,-43.94,-48.69,-52.04
2023/02/11 00:20:20+0000,-35.16,-46.20,-33.17,-44.37,-47.89,-50.79
2023/02/11 00:21:20+0000,-34.10,-45.37,-32.85,-44.12,-47.35,-50.92
2023/02/11 00:22:12+0000,-34.38,-45.55,-32.76,-44.04,-48.46,-51.53
2023/02/11 00:23:04+0000,-35.16,-45.91,-32.54,-44.72,-48.44,-50.67
2023/02/11 00:23:56+0000,-34.28,-46.89,-32.75,-44.70,-48.55,-51.36
2023/02/11 00:24:48+0000,-34.45,-46.10,-32.55,-45.26,-48.15,-50.84
2023/02/11 00:25:40+0000,-34.41,-46.30,-32.20,-44.34,-50.18,-52.06
2023/02/11 00:26:32+0000,-34.14,-46.30,-32.66,-44.68,-48.33,-52.44
2023/02/11 00:27:24+0000,-34.15,-45.72,-32.06,-42.56,-47.62,-50.43
2023/02/11 00:28:16+0000,-34.17,-45.23,-32.82,-41.42,-48.76,-53.60
2023/02/11 00:29:08+0000,-35.01,-46.26,-32.92,-43.40,-46.98,-51.73
2023/02/11 00:30:01+0000,-34.58,-42.81,-33.00,-43.93,-49.31,-52.80
2023/02/11 00:31:00+0000,-34.95,-44.56,-32.52,-43.38,-47.68,-53.25
2023/02/11 00:31:52+0000,-34.36,-44.92,-32.39,-42.66,-46.93,-52.51
2023/02/11 00:32:44+0000,-35.07,-45.75,-32.47,-42.52,-47.51,-50.73
2023/02/11 00:33:36+0000,-33.80,-45.80,-33.04,-41.54,-47.73,-51.32
2023/02/11 00:34:28+0000,-34.65,-45.63,-32.56,-42.42,-48.13,-53.56
2023/02/11 00:35:20+0000,-34.20,-44.88,-33.16,-42.81,-47.77,-52.95
2023/02/11 00:36:12+0000,-35.10,-43.69,-32.78,-43.46,-49.36,-52.99
2023/02/11 00:37:04+0000,-35.16,-42.66,-33.01,-44.48,-47.56,-50.99
2023/02/11 00:37:56+0000,-34.81,-43.46,-32.83,-42.00,-49.24,-51.77
2023/02/11 00:38:48+0000,-34.71,-43.61,-33.29,-43.43,-47.70,-50.73
2023/02/11 00:39:41+0000,-35.23,-43.11,-33.08,-43.67,-49.48,-49.25
2023/02/11 00:40:33+0000,-34.46,-42.34,-33.02,-43.07,-48.48,-53.77
2023/02/11 00:41:32+0000,-34.63,-42.51,-32.40,-42.64,-47.24,-53.02
2023/02/11 00:42:24+0000,-35.30,-42.51,-32.94,-42.31,-47.29,-51.47
2023/02/11 00:43:16+0000,-34.28,-42.79,-33.24,-43.01,-48.24,-53.50
2023/02/11 00:44:08+0000,-34.16,-43.77,-32.91,-42.37,-48.81,-51.89
2023/02/11 00:45:00+0000,-34.82,-42.39,-32.60,-43.64,-48.44,-53.32
2023/02/11 00:45:52+0000,-34.46,-43.07,-33.29,-43.17,-47.97,-52.79
2023/02/11 00:46:44+0000,-35.04,-42.86,-33.01,-43.14,-48.65,-50.90
2023/02/11 00:47:36+0000,-34.24,-43.11,-32.92,-42.78,-48.64,-51.80
2023/02/11 00:48:28+0000,-35.17,-42.16,-33.39,-43.29,-48.21,-52.64
2023/02/11 00:49:20+0000,-34.19,-43.91,-33.20,-44.20,-48.63,-52.57
2023/02/11 00:50:13+0000,-34.44,-44.88,-33.10,-41.66,-48.94,-51.09
2023/02/11 00:51:12+0000,-34.98,-47.27,-33.09,-40.67,-48.55,-52.02
2023/02/11 00:52:04+0000,-34.65,-45.09,-32.45,-42.02,-49.16,-51.19
2023/02/11 00:52:56+0000,-35.37,-42.11,-32.24,-45.71,-49.11,-52.66
2023/02/11 00:53:48+0000,-33.75,-44.03,-32.70,-42.01,-47.66,-53.78
2023/02/11 00:54:41+0000,-34.70,-44.25,-32.27,-44.08,-47.97,-50.05
2023/02/11 00:55:33+0000,-35.18,-43.74,-32.41,-44.01,-47.93,-53.44
2023/02/11 00:56:25+0000,-34.68,-43.58,-33.03,-44.77,-47.70,-50.62
2023/02/11 00:57:17+0000,-34.45,-43.58,-32.37,-44.15,-47.74,-52.61
2023/02/11 00:58:09+0000,-33.83,-45.78,-32.59,-43.93,-47.25,-51.41
2023/02/11 00:59:01+0000,-34.35,-44.66,-32.59,-45.10,-47.89,-50.17
2023/02/11 00:59:53+0000,-34.98,-43.56,-32.67,-43.84,-47.38,-51.93
2023/02/11 01:00:45+0000,-34.62,-44.46,-32.96,-42.66,-47.57,-49.94
2023/02/11 01:01:45+0000,-34.64,-43.88,-32.89,-43.39,-47.57,-53.91
2023/02/11 01:02:37+0000,-34.33,-43.35,-32.69,-43.98,-47.45,-48.46
2023/02/11 01:03:29+0000,-34.26,-42.45,-32.35,-44.78,-48.68,-53.38
2023/02/11 01:04:22+0000,-35.18,-43.47,-32.09,-43.67,-47.79,-51.64
2023/02/11 01:05:14+0000,-35.68,-43.49,-32.80,-45.13,-47.21,-51.69
2023/02/11 01:06:06+0000,-35.02,-44.74,-32.97,-44.17,-46.70,-50.00
2023/02/11 01:06:58+0000,-35.51,-43.74,-32.44,-45.29,-46.75,-53.27
2023/02/11 01:07:50+0000,-35.22,-44.03,-32.67,-44.99,-46.73,-52.16
2023/02/11 01:08:42+0000,-35.43,-43.18,-32.69,-44.82,-47.05,-50.27
2023/02/11 01:09:34+0000,-34.15,-43.58,-32.41,-44.50,-47.31,-50.90
2023/02/11 01:10:26+0000,-34.72,-42.86,-32.40,-44.95,-48.15,-52.42
2023/02/11 01:11:26+0000,-34.60,-45.27,-33.04,-45.01,-48.60,-52.39
2023/02/11 01:12:18+0000,-35.74,-45.10,-32.08,-44.91,-48.83,-53.24
2023/02/11 01:13:10+0000,-34.81,-44.61,-33.03,-43.78,-48.88,-50.66
2023/02/11 01:14:02+0000,-33.83,-43.85,-31.64,-44.07,-46.11,-53.42
2023/02/11 01:14:54+0000,-35.28,-43.07,-32.69,-44.69,-48.02,-52.39
2023/02/11 01:15:46+0000,-35.25,-44.31,-32.03,-43.86,-47.44,-53.69
2023/02/11 01:16:38+0000,-34.22,-45.70,-31.86,-45.08,-46.55,-48.90
2023/02/11 01:17:30+0000,-34.84,-41.69,-32.09,-44.32,-47.23,-53.62
2023/02/11 01:18:22+0000,-35.11,-44.02,-31.12,-44.06,-48.40,-53.84
2023/02/11 01:19:14+0000,-34.76,-44.23,-32.43,-44.01,-47.35,-50.72
2023/02/11 01:20:06+0000,-33.79,-44.70,-32.00,-43.45,-47.03,-50.98
2023/02/11 01:21:06+0000,-34.62,-43.40,-32.06,-43.15,-47.46,-48.66
2023/02/11 01:21:58+0000,-35.03,-42.99,-32.44,-46.10,-47.59,-53.39
2023/02/11 01:22:50+0000,-34.71,-42.98,-33.04,-46.02,-47.64,-53.23
2023/02/11 01:23:42+0000,-34.35,-41.95,-32.57,-45.34,-47.84,-50.47
2023/02/11 01:24:34+0000,-34.01,-43.83,-32.46,-46.18,-47.19,-51.11
2023/02/11 01:25:26+0000,-35.15,-44.25,-31.09,-44.08,-47.99,-52.59
2023/02/11 01:26:18+0000,-34.97,-43.38,-31.86,-43.76,-48.74,-53.41
2023/02/11 01:27:10+0000,-33.96,-42.97,-32.51,-45.40,-48.91,-51.23
2023/02/11 01:28:02+0000,-33.07,-42.54,-32.01,-43.92,-46.87,-53.66
2023/02/11 01:28:54+0000,-35.05,-43.07,-32.84,-44.59,-47.82,-53.74
2023/02/11 01:29:46+0000,-34.63,-43.77,-32.25,-44.94,-47.67,-53.82
2023/02/11 01:30:38+0000,-33.68,-43.57,-32.46,-44.97,-47.55,-49.58
2023/02/11 01:31:38+0000,-33.89,-43.21,-32.90,-45.26,-47.90,-47.90
2023/02/11 01:32:30+0000,-35.10,-43.92,-31.94,-45.25,-47.05,-51.35
2023/02/11 01:33:22+0000,-34.71,-44.99,-31.99,-44.78,-47.88,-52.35
2023/02/11 01:34:14+0000,-34.77,-44.30,-31.30,-43.74,-48.49,-52.02
2023/02/11 01:35:06+0000,-34.38,-44.75,-32.36,-45.80,-46.63,-51.41
2023/02/11 01:35:58+0000,-34.75,-42.78,-33.33,-45.64,-46.85,-53.36
2023/02/11 01:36:50+0000,-34.75,-42.49,-32.73,-45.65,-47.90,-53.54
2023/02/11 01:37:42+0000,-34.28,-42.67,-32.78,-45.48,-48.03,-52.74
2023/02/11 01:38:34+0000,-33.59,-42.33,-32.17,-46.23,-46.78,-53.01
2023/02/11 01:39:26+0000,-34.23,-45.37,-32.77,-43.94,-48.20,-52.99
2023/02/11 01:40:19+0000,-34.93,-44.18,-32.51,-46.64,-48.53,-52.87
2023/02/11 01:41:18+0000,-34.82,-45.28,-32.81,-44.98,-48.51,-53.44
2023/02/11 01:42:10+0000,-34.82,-45.39,-32.41,-44.08,-49.34,-52.26
2023/02/11 01:43:02+0000,-34.21,-46.56,-31.84,-46.06,-47.87,-54.10
2023/02/11 01:43:54+0000,-35.36,-44.48,-32.48,-43.52,-48.80,-53.32
2023/02/11 01:44:46+0000,-36.42,-43.55,-32.34,-44.64,-49.11,-53.56
2023/02/11 01:45:38+0000,-33.91,-43.12,-32.48,-44.96,-48.00,-52.49
2023/02/11 01:46:30+0000,-35.59,-43.13,-32.05,-43.64,-47.07,-53.35
2023/02/11 01:47:22+0000,-34.24,-43.16,-32.41,-45.01,-47.00,-53.75
2023/02/11 01:48:14+0000,-36.06,-42.36,-32.34,-44.34,-48.78,-52.52
2023/02/11 01:49:06+0000,-35.55,-41.34,-32.90,-45.05,-47.76,-52.30
2023/02/11 01:49:59+0000,-35.34,-41.73,-32.49,-43.45,-47.28,-53.73
2023/02/11 01:50:51+0000,-35.22,-43.15,-32.37,-44.57,-47.31,-53.75
2023/02/11 01:51:50+0000,-35.92,-42.36,-32.65,-44.95,-47.40,-54.25
2023/02/11 01:52:42+0000,-34.21,-42.16,-33.23,-44.49,-46.38,-52.67
2023/02/11 01:53:34+0000,-35.01,-43.22,-32.49,-46.26,-47.49,-53.83
2023/02/11 01:54:26+0000,-36.20,-42.52,-32.33,-45.26,-48.84,-54.26
2023/02/11 01:55:18+0000,-36.15,-42.17,-32.29,-46.35,-47.96,-54.02
2023/02/11 01:56:11+0000,-34.85,-41.48,-32.20,-45.19,-48.41,-52.88
2023/02/11 01:57:03+0000,-35.35,-41.61,-31.78,-43.78,-45.83,-54.03
2023/02/11 01:57:55+0000,-35.05,-39.56,-31.90,-44.48,-48.10,-54.12
2023/02/11 01:58:47+0000,-35.49,-41.64,-32.39,-45.18,-46.76,-54.53
2023/02/11 01:59:39+0000,-34.23,-42.24,-32.26,-45.27,-47.90,-53.76
2023/02/11 02:00:31+0000,-36.72,-41.56,-31.91,-45.25,-47.08,-53.94
2023/02/11 02:01:31+0000,-35.67,-41.62,-31.52,-45.14,-47.51,-53.95
2023/02/11 02:02:23+0000,-35.58,-41.43,-32.53,-45.32,-46.96,-53.91
2023/02/11 02:03:15+0000,-35.99,-41.52,-32.60,-44.90,-46.03,-54.03
2023/02/11 02:04:07+0000,-35.66,-42.62,-32.28,-45.59,-47.36,-53.54
2023/02/11 02:04:59+0000,-35.88,-41.45,-32.40,-45.33,-47.65,-53.84
2023/02/11 02:05:51+0000,-35.89,-42.24,-32.78,-45.40,-47.82,-54.63
2023/02/11 02:06:43+0000,-36.18,-43.22,-33.13,-46.09,-48.36,-53.24
2023/02/11 02:07:35+0000,-36.21,-42.84,-32.43,-46.67,-47.95,-53.81
2023/02/11 02:08:27+0000,-35.34,-40.93,-32.03,-44.82,-47.88,-53.99
2023/02/11 02:09:19+0000,-36.13,-43.23,-32.73,-47.81,-48.59,-53.89
2023/02/11 02:10:11+0000,-35.30,-42.81,-32.54,-46.52,-48.08,-53.72
2023/02/11 02:11:13+0000,-36.15,-41.99,-32.55,-45.19,-47.87,-54.03
2023/02/11 02:12:05+0000,-36.16,-40.52,-31.80,-48.11,-48.21,-54.94
2023/02/11 02:12:57+0000,-35.46,-42.30,-32.74,-46.55,-47.90,-53.80
2023/02/11 02:13:49+0000,-34.73,-41.61,-31.40,-47.78,-47.61,-53.31
2023/02/11 02:14:41+0000,-35.52,-41.77,-31.81,-46.20,-48.68,-54.24
2023/02/11 02:15:33+0000,-35.49,-41.82,-32.10,-47.91,-47.08,-53.63
2023/02/11 02:16:25+0000,-35.70,-42.35,-32.27,-45.79,-48.10,-54.44
2023/02/11 02:17:17+0000,-35.39,-41.96,-32.61,-46.17,-46.93,-54.29
2023/02/11 02:18:09+0000,-35.89,-41.90,-31.55,-45.77,-47.68,-53.94
2023/02/11 02:19:01+0000,-36.00,-42.11,-32.68,-45.43,-47.45,-54.63
2023/02/11 02:19:53+0000,-36.45,-41.89,-32.52,-44.58,-44.35,-54.23
2023/02/11 02:20:45+0000,-37.26,-42.32,-31.92,-44.55,-44.83,-54.06
2023/02/11 02:21:45+0000,-36.31,-41.82,-32.48,-43.60,-44.60,-53.27
2023/02/11 02:22:37+0000,-36.86,-43.30,-32.02,-45.37,-47.73,-54.32
2023/02/11 02:23:29+0000,-36.81,-40.59,-32.11,-44.83,-47.62,-53.43
2023/02/11 02:24:21+0000,-34.81,-44.81,-32.58,-44.54,-45.78,-53.19
2023/02/11 02:25:13+0000,-36.59,-42.25,-32.94,-40.64,-45.72,-54.48
2023/02/11 02:26:05+0000,-36.43,-43.07,-31.81,-46.72,-47.84,-54.49
2023/02/11 02:26:57+0000,-36.47,-41.99,-32.32,-45.45,-47.33,-53.11
2023/02/11 02:27:49+0000,-35.69,-43.50,-31.92,-47.11,-43.75,-53.19
2023/02/11 02:28:42+0000,-35.87,-43.68,-32.68,-43.77,-47.64,-53.82
2023/02/11 02:29:34+0000,-35.59,-44.26,-32.28,-46.51,-47.76,-53.94
2023/02/11 02:30:26+0000,-35.56,-43.69,-32.48,-42.27,-46.99,-53.55
2023/02/11 02:31:26+0000,-34.97,-43.76,-32.11,-43.03,-47.86,-54.55
2023/02/11 02:32:18+0000,-36.22,-44.78,-32.09,-43.37,-48.01,-53.86
2023/02/11 02:33:10+0000,-34.89,-43.89,-32.55,-45.69,-48.23,-54.02
2023/02/11 02:34:02+0000,-35.09,-43.11,-32.45,-42.69,-47.31,-54.05
2023/02/11 02:34:54+0000,-35.10,-40.27,-32.49,-43.13,-47.22,-53.83
2023/02/11 02:35:46+0000,-35.18,-41.82,-32.22,-45.12,-47.18,-54.29
2023/02/11 02:36:38+0000,-35.15,-44.74,-33.27,-42.91,-48.15,-54.12
2023/02/11 02:37:30+0000,-34.92,-42.47,-32.24,-41.28,-47.65,-53.70
2023/02/11 02:38:22+0000,-35.28,-42.02,-32.91,-43.25,-47.85,-54.16
2023/02/11 02:39:14+0000,-34.77,-42.91,-32.62,-42.83,-47.74,-53.84
2023/02/11 02:40:06+0000,-35.24,-44.75,-32.22,-44.90,-47.78,-54.30
2023/02/11 02:41:07+0000,-35.28,-44.94,-31.47,-44.21,-48.04,-53.80
2023/02/11 02:41:59+0000,-35.69,-42.55,-31.97,-43.44,-48.02,-54.09
2023/02/11 02:42:51+0000,-35.25,-45.11,-32.09,-41.11,-47.28,-53.69
2023/02/11 02:43:43+0000,-34.95,-43.81,-32.86,-43.52,-47.32,-54.19
2023/02/11 02:44:35+0000,-34.98,-41.38,-32.11,-47.00,-48.75,-52.81
2023/02/11 02:45:27+0000,-34.54,-42.92,-32.26,-42.99,-48.94,-54.01
2023/02/11 02:46:19+0000,-34.43,-44.15,-32.57,-46.71,-48.34,-54.07
2023/02/11 02:47:11+0000,-34.59,-43.63,-31.77,-44.29,-48.10,-53.06
2023/02/11 02:48:03+0000,-34.70,-43.96,-32.00,-40.74,-47.94,-54.56
2023/02/11 02:48:55+0000,-35.16,-41.16,-32.54,-43.45,-48.38,-54.30
2023/02/11 02:49:48+0000,-34.96,-40.96,-31.77,-44.58,-48.25,-54.01
2023/02/11 02:50:40+0000,-34.89,-42.26,-32.01,-44.44,-48.01,-53.41
2023/02/11 02:51:39+0000,-35.14,-39.30,-31.68,-44.36,-48.10,-52.69
2023/02/11 02:52:31+0000,-34.50,-42.76,-31.90,-44.30,-48.64,-53.76
2023/02/11 02:53:23+0000,-35.14,-42.77,-31.87,-43.23,-48.39,-54.17
2023/02/11 02:54:16+0000,-35.11,-43.45,-32.26,-44.79,-48.72,-52.96
2023/02/11 02:55:08+0000,-35.15,-44.87,-31.61,-43.02,-48.35,-54.50
2023/02/11 02:56:00+0000,-34.78,-44.94,-32.35,-45.04,-48.42,-54.29
2023/02/11 02:56:52+0000,-34.98,-43.37,-32.84,-43.92,-47.86,-53.76
2023/02/11 02:57:44+0000,-35.03,-42.54,-31.89,-44.89,-47.91,-53.96
2023/02/11 02:58:36+0000,-34.82,-42.74,-32.35,-45.96,-48.33,-53.68
2023/02/11 02:59:28+0000,-34.20,-42.23,-31.96,-45.19,-47.65,-53.29
2023/02/11 03:00:20+0000,-34.61,-42.13,-32.17,-46.51,-48.18,-53.86
2023/02/11 03:01:21+0000,-35.08,-45.08,-31.79,-44.75,-47.55,-53.43
2023/02/11 03:02:13+0000,-34.71,-42.22,-32.03,-42.61,-47.39,-53.58
2023/02/11 03:03:05+0000,-34.63,-39.30,-31.17,-44.98,-48.14,-53.72
2023/02/11 03:03:57+0000,-34.16,-41.47,-31.93,-44.55,-47.40,-53.93
2023/02/11 03:04:49+0000,-35.29,-42.90,-31.65,-45.53,-44.58,-53.63
2023/02/11 03:05:41+0000,-34.54,-42.13,-32.12,-45.81,-44.25,-53.72
2023/02/11 03:06:33+0000,-34.90,-39.86,-31.40,-47.07,-45.02,-53.61
2023/02/11 03:07:25+0000,-34.56,-43.02,-31.69,-45.36,-44.23,-54.29
2023/02/11 03:08:17+0000,-35.19,-42.47,-31.65,-45.17,-44.28,-53.67
2023/02/11 03:09:09+0000,-34.95,-43.80,-31.45,-45.24,-44.47,-54.20
2023/02/11 03:10:01+0000,-34.62,-41.92,-31.64,-44.23,-44.89,-54.28
2023/02/11 03:11:01+0000,-34.48,-43.38,-32.46,-44.46,-44.55,-54.02
2023/02/11 03:11:53+0000,-31.71,-39.80,-31.81,-44.99,-44.84,-53.10
2023/02/11 03:12:45+0000,-34.95,-38.99,-32.07,-44.95,-45.20,-54.03
2023/02/11 03:13:37+0000,-34.15,-40.06,-31.85,-44.15,-45.17,-54.12
2023/02/11 03:14:30+0000,-34.20,-44.40,-31.96,-45.22,-44.97,-53.78
2023/02/11 03:15:22+0000,-34.79,-43.89,-31.75,-45.01,-45.35,-53.52
2023/02/11 03:16:14+0000,-34.40,-41.67,-32.20,-45.74,-43.96,-54.10
2023/02/11 03:17:06+0000,-33.95,-43.09,-32.20,-44.09,-44.95,-53.48
2023/02/11 03:17:58+0000,-34.81,-41.41,-31.98,-44.81,-43.23,-53.00
2023/02/11 03:18:50+0000,-34.45,-41.07,-31.84,-45.81,-43.96,-52.91
2023/02/11 03:19:42+0000,-35.10,-42.13,-31.89,-45.60,-43.67,-53.22
2023/02/11 03:20:34+0000,-35.29,-42.82,-31.39,-45.57,-43.95,-53.45
2023/02/11 03:21:34+0000,-34.95,-43.09,-31.39,-46.27,-44.97,-53.41
2023/02/11 03:22:26+0000,-35.26,-42.19,-31.81,-44.16,-44.79,-53.03
2023/02/11 03:23:19+0000,-34.27,-42.76,-31.92,-47.49,-44.58,-53.06
2023/02/11 03:24:11+0000,-34.06,-41.81,-31.46,-45.31,-44.77,-53.47
2023/02/11 03:25:03+0000,-34.55,-42.51,-31.56,-44.59,-44.42,-54.17
2023/02/11 03:25:55+0000,-34.59,-42.91,-30.89,-43.95,-44.93,-53.72
2023/02/11 03:26:47+0000,-34.48,-42.30,-31.90,-44.72,-44.50,-52.73
2023/02/11 03:27:39+0000,-34.10,-43.57,-31.58,-44.97,-44.61,-53.27
2023/02/11 03:28:31+0000,-35.01,-44.17,-32.41,-43.65,-45.02,-53.28
2023/02/11 03:29:23+0000,-34.81,-42.65,-31.77,-45.67,-45.10,-52.42
2023/02/11 03:30:15+0000,-34.86,-42.47,-31.57,-43.41,-45.06,-53.03
2023/02/11 03:31:15+0000,-34.94,-42.64,-30.66,-45.23,-44.38,-52.97
2023/02/11 03:32:07+0000,-34.22,-45.17,-31.01,-44.11,-44.43,-54.01
2023/02/11 03:32:59+0000,-34.92,-43.45,-31.09,-43.70,-44.78,-53.45
2023/02/11 03:33:51+0000,-35.34,-44.71,-30.59,-43.24,-44.79,-54.03
2023/02/11 03:34:43+0000,-34.70,-44.35,-31.11,-44.25,-43.99,-53.41
2023/02/11 03:35:35+0000,-33.54,-42.12,-31.79,-45.81,-44.19,-53.28
2023/02/11 03:36:27+0000,-33.87,-42.88,-31.32,-44.61,-44.51,-53.39
2023/02/11 03:37:19+0000,-32.74,-42.09,-31.81,-46.05,-44.68,-53.77
2023/02/11 03:38:11+0000,-32.54,-42.01,-31.00,-45.57,-45.33,-53.12
2023/02/11 03:39:03+0000,-31.16,-44.15,-30.68,-47.37,-44.34,-53.34
2023/02/11 03:39:56+0000,-34.64,-44.61,-31.21,-47.94,-44.36,-53.40
2023/02/11 03:40:48+0000,-34.02,-42.79,-32.06,-45.24,-43.67,-53.22
2023/02/11 03:41:47+0000,-34.55,-42.96,-32.02,-46.71,-43.83,-53.22
2023/02/11 03:42:39+0000,-34.18,-42.45,-30.94,-46.43,-44.16,-53.32
2023/02/11 03:43:31+0000,-34.85,-42.87,-32.15,-47.23,-44.34,-53.60
2023/02/11 03:44:23+0000,-34.63,-44.19,-31.74,-46.30,-44.21,-53.14
2023/02/11 03:45:15+0000,-34.61,-42.25,-32.09,-46.90,-44.35,-53.23
2023/02/11 03:46:08+0000,-34.65,-42.03,-31.25,-46.09,-44.02,-53.78
2023/02/11 03:47:00+0000,-34.38,-42.52,-32.52,-46.45,-44.38,-53.51
2023/02/11 03:47:52+0000,-34.23,-43.60,-32.32,-46.59,-45.03,-53.27
2023/02/11 03:48:44+0000,-34.63,-40.90,-32.10,-45.40,-44.01,-53.06
2023/02/11 03:49:36+0000,-32.59,-41.76,-31.24,-46.86,-44.29,-53.17
2023/02/11 03:50:28+0000,-34.25,-42.45,-32.14,-46.01,-44.39,-53.55
2023/02/11 03:51:29+0000,-34.35,-41.54,-32.18,-47.26,-44.65,-53.23
2023/02/11 03:52:21+0000,-35.35,-41.27,-31.89,-47.02,-44.03,-52.49
2023/02/11 03:53:13+0000,-34.41,-39.57,-32.01,-46.33,-44.55,-53.31
2023/02/11 03:54:05+0000,-34.82,-41.88,-31.10,-47.51,-44.39,-52.50
2023/02/11 03:54:57+0000,-35.12,-42.27,-31.63,-47.65,-43.91,-52.84
2023/02/11 03:55:49+0000,-34.18,-42.34,-31.38,-46.84,-43.59,-53.07
2023/02/11 03:56:41+0000,-35.19,-41.67,-31.37,-46.28,-43.48,-52.35
2023/02/11 03:57:33+0000,-33.88,-43.08,-31.78,-47.17,-44.12,-52.72
2023/02/11 03:58:25+0000,-33.75,-42.12,-32.43,-45.76,-43.52,-52.33
2023/02/11 03:59:18+0000,-33.75,-41.96,-32.56,-45.31,-44.72,-52.55
2023/02/11 04:00:10+0000,-33.37,-41.59,-32.75,-45.87,-43.88,-52.25
2023/02/11 04:01:12+0000,-33.43,-41.71,-33.06,-44.95,-43.68,-52.86
2023/02/11 04:02:04+0000,-33.82,-40.33,-32.50,-45.49,-44.45,-52.66
2023/02/11 04:02:56+0000,-33.76,-42.28,-32.34,-45.74,-44.14,-53.35
2023/02/11 04:03:48+0000,-33.36,-40.15,-32.56,-46.13,-44.08,-53.25
2023/02/11 04:04:40+0000,-34.32,-40.71,-32.42,-45.05,-44.38,-53.14
2023/02/11 04:05:32+0000,-33.27,-41.80,-31.51,-45.92,-44.23,-53.04
2023/02/11 04:06:24+0000,-33.76,-43.18,-32.87,-45.92,-45.04,-52.92
2023/02/11 04:07:16+0000,-32.87,-42.05,-32.33,-45.50,-43.49,-52.84
2023/02/11 04:08:08+0000,-33.31,-41.14,-32.01,-45.61,-44.73,-53.40
2023/02/11 04:09:00+0000,-33.55,-42.25,-32.23,-45.04,-44.53,-53.41
2023/02/11 04:09:52+0000,-34.07,-43.28,-31.94,-45.00,-44.15,-54.20
2023/02/11 04:10:44+0000,-33.02,-41.90,-32.39,-46.15,-44.17,-53.11
2023/02/11 04:11:44+0000,-34.05,-42.60,-32.54,-45.88,-44.13,-53.85
2023/02/11 04:12:36+0000,-34.68,-43.27,-32.48,-45.07,-44.32,-53.04
2023/02/11 04:13:28+0000,-34.37,-42.46,-32.69,-44.90,-44.06,-53.00
2023/02/11 04:14:20+0000,-34.00,-43.60,-32.44,-45.59,-44.26,-53.29
2023/02/11 04:15:12+0000,-34.29,-40.45,-32.65,-45.74,-44.41,-53.71
2023/02/11 04:16:04+0000,-33.38,-42.33,-31.75,-46.84,-44.34,-52.47
2023/02/11 04:16:56+0000,-33.81,-43.09,-33.23,-45.81,-44.24,-53.12
2023/02/11 04:17:48+0000,-34.85,-42.65,-32.08,-45.35,-44.82,-53.05
2023/02/11 04:18:40+0000,-34.53,-42.26,-32.82,-45.45,-43.78,-53.66
2023/02/11 04:19:32+0000,-33.10,-42.33,-32.11,-45.59,-44.13,-53.24
2023/02/11 04:20:25+0000,-34.33,-42.80,-31.81,-45.36,-44.58,-54.13
2023/02/11 04:21:24+0000,-34.29,-42.97,-32.04,-45.73,-44.39,-53.26
2023/02/11 04:22:16+0000,-34.86,-42.61,-32.03,-45.89,-44.60,-54.28
2023/02/11 04:23:08+0000,-32.73,-42.18,-31.68,-45.14,-44.44,-53.52
2023/02/11 04:24:00+0000,-34.08,-42.61,-32.67,-45.86,-44.50,-53.41
2023/02/11 04:24:52+0000,-33.96,-43.36,-32.13,-45.78,-44.95,-53.61
2023/02/11 04:25:44+0000,-34.80,-41.99,-32.28,-46.23,-44.56,-53.94
2023/02/11 04:26:36+0000,-34.40,-43.29,-32.76,-45.09,-44.29,-53.89
2023/02/11 04:27:28+0000,-34.12,-41.28,-32.57,-45.32,-43.90,-53.51
2023/02/11 04:28:20+0000,-33.58,-43.45,-32.40,-45.66,-44.81,-53.81
2023/02/11 04:29:12+0000,-33.37,-41.42,-32.48,-45.45,-44.56,-54.10
2023/02/11 04:30:05+0000,-34.18,-38.12,-32.91,-46.19,-44.37,-53.16
2023/02/11 04:31:05+0000,-33.46,-36.77,-32.17,-45.84,-44.22,-54.15
2023/02/11 04:31:57+0000,-34.31,-41.54,-32.43,-45.06,-43.63,-53.93
2023/02/11 04:32:49+0000,-33.05,-42.52,-32.48,-44.93,-44.78,-53.63
2023/02/11 04:33:41+0000,-34.50,-40.94,-32.47,-45.71,-44.65,-53.76
2023/02/11 04:34:33+0000,-34.03,-37.10,-32.42,-45.64,-44.07,-53.91
2023/02/11 04:35:25+0000,-34.46,-40.33,-32.48,-45.00,-44.21,-54.17
2023/02/11 04:36:17+0000,-34.48,-42.93,-32.47,-45.36,-44.28,-53.58
2023/02/11 04:37:09+0000,-34.26,-43.29,-32.21,-45.25,-44.96,-53.91
2023/02/11 04:38:02+0000,-34.04,-40.36,-32.28,-45.30,-45.38,-53.26
2023/02/11 04:38:54+0000,-34.72,-39.54,-32.54,-45.76,-43.57,-53.94
2023/02/11 04:39:46+0000,-35.10,-42.96,-32.86,-45.49,-44.19,-54.09
2023/02/11 04:40:38+0000,-33.92,-45.28,-32.27,-46.12,-44.74,-53.55
2023/02/11 04:41:37+0000,-34.26,-44.22,-32.45,-45.69,-45.16,-53.61
2023/02/11 04:42:29+0000,-34.11,-40.32,-32.93,-45.92,-44.76,-53.37
2023/02/11 04:43:21+0000,-34.82,-42.21,-32.78,-45.50,-43.54,-53.30
2023/02/11 04:44:13+0000,-34.51,-42.83,-33.01,-45.43,-44.60,-53.60
2023/02/11 04:45:05+0000,-34.12,-39.66,-33.21,-44.55,-44.68,-54.22
2023/02/11 04:45:57+0000,-33.53,-43.40,-32.72,-45.71,-44.54,-53.31